STARLINK-1071 (44934 NORAD) Tracking and Keplerian Element Data

This shows tracking and keplerian element data for the satellite.

Feedback or suggestion? Click here.




ElementValue
Catalog44934
NameSTARLINK-1071
Epoch Orbit1361
Epoch Day94.25001157
Epoch Year2020
RAAN332.1345
Inclination53.0014
Eccentricity8.76E-05
Argument of Perigee42.4469
Mean Anonmoly49.2194
Mean Motion15.05604604
Decay Rate-0.0002267
L11 44934U 20001W 20094.25001157 -.00022670 00000-0 -15407-2 0 9991
L22 44934 53.0014 332.1345 0000876 42.4469 49.2194 15.05604604 13611

Live tracking and technical data element details for STARLINK-1071 (NORAD 44934). STARLINK-1071 can be tracked NOW for your location showing map with azimuth and elevation plus other details from your city location.

Track the satellite on the map from your city or location and see movement details for azimuth, elevation, latitude, longitude, range, height, and movement on the map or in text.







IsCatalogInMostPopularTable: catalog: 44934, numindb: 23
Update: records affected: 1



GetName: 44934 STARLINK-1071

Hit Count: updated at: Fri, 10 Apr 2020 20:03:59 GMT